www.pogodaiklimat.ru

Погода и климат >> Архив погоды >> Фиджи >> Нэбаууолу


ПОГОДА в Нэбаууолу

  • Прогноз погоды в Нэбаууолу
  • Монитор погоды в Нэбаууолу

АРХИВ ПОГОДЫ в Нэбаууолу

Время (UTC), дата Ветер
(напр.,м/с)
 
Видим.   Явления Облачность Т
(С)
Тd
(С)
f
(%)
Тe
(С)
Тes
(С)
Комфортность P
(гПа)
Po
(гПа)
Тmin
(С)
Tmax
(С)
R
(мм)
R24
(мм)
S
(см)
21 12.04 ЮВ 5 50 км 4/3 750 м
[Cu hum Ci fib]
+30.4 +25.5 75 +45 +48 опасность
перегрева
1009.5 1005.4
00 13.04 ЮВ 5 50 км 5/5 750 м
[Cu Sc]
+31.0 +25.0 70 +44 +49 опасность
перегрева
1008.0 1003.9 +25.0 36
03 13.04 В 5 20 км слаб. дождь 10/10 660 м
[Cu Sc]
+25.4 +24.3 94 +35 +36 очень
душно
1007.7 1003.6
06 13.04 штиль 0 20 км слаб. дождь 10/10 660 м
[Cu Sc]
+24.4 +23.7 96 +33 +33 очень
душно
1009.1 1004.9 7
09 13.04 штиль 0 20 км слаб. дождь 10/10 660 м
[Cu Sc]
+24.1 +23.4 96 +32 +32 очень
душно
1009.3 1005.1
12 13.04 штиль 0 20 км {дождь} 9/9 720 м
[Cu Sc]
+23.8 +23.4 98 +32 +32 очень
душно
1008.2 1004.0 +31.8 4
15 13.04 штиль 0 20 км 8/8 750 м
[Cu Sc]
+24.0 +23.1 95 +32 +32 очень
душно
1006.9 1002.7
18 13.04 штиль 0 50 км 6/6 750 м
[Cu Sc]
+24.5 +23.8 96 +33 +33 очень
душно
1006.5 1002.3
21 13.04 ЮВ 5 50 км 6/6 750 м
[Cu Sc]
+28.5 +25.3 83 +42 +44 опасность
перегрева
1008.0 1003.9
00 15.04 З 2 50 км 4/4 750 м
[Cu Sc]
+31.5 +25.8 72 +47 +58 опасность
перегрева
1005.4 1001.3 +24.6 46
03 15.04 штиль 0 50 км 4/4 750 м
[Cu Sc]
+31.5 +26.7 76 +49 +56 опасность
перегрева
1003.8 999.8
06 15.04 штиль 0 50 км 4/4 750 м
[Cu Sc]
+31.5 +26.7 76 +49 +49 опасность
перегрева
1003.8 1000.0
09 15.04 штиль 0 50 км 4/4 750 м
[Cu Sc]
+25.8 +24.5 93 +36 +36 очень
душно
1007.1 1003.0
12 15.04 штиль 0 20 км 5/4 750 м
[Cu Sc]
+25.1 +23.9 93 +34 +34 очень
душно
1007.4 1003.3 +31.9
15 15.04 штиль 0 20 км 5/5 750 м
[Cu Sc]
+24.8 +23.6 93 +34 +34 очень
душно
1006.5 1002.4
18 15.04 ЮВ 5 50 км 4/4 750 м
[Cu Sc]
+24.6 +23.6 94 +33 +33 очень
душно
1007.4 1003.2
21 15.04 штиль 0 50 км 8/8 750 м
[Cu Sc]
+28.3 +25.8 86 +42 +45 опасность
перегрева
1009.3 1005.2
21 16.04 В 5 50 км 5/5 750 м
[Cu Sc]
+29.5 +25.3 78 +43 +45 опасность
перегрева
1010.2 1006.1
00 17.04 ЮВ 5 20 км слаб. ливневой дождь 10/5 720 м
[Cu Sc Ac As]
+28.8 +26.7 88 +45 +46 опасность
перегрева
1010.2 1006.1 +25.5 2 2
03 17.04 В 5 20 км ливневой дождь 10/6 660 м
[Cu Sc Ac As]
+27.0 +25.7 93 +40 +41 очень
душно
1008.5 1004.4
06 17.04 штиль 0 50 км {ливн. осадки} 5/5 750 м
[Cu Sc]
+25.4 +24.4 94 +35 +35 очень
душно
1008.7 1004.6 10
09 17.04 штиль 0 50 км 4/4 750 м
[Cu Sc]
+25.3 +24.6 96 +36 +36 очень
душно
1011.6 1007.4
12 17.04 штиль 0 20 км 4/4 750 м
[Cu Sc]
+25.7 +24.1 91 +36 +36 очень
душно
1011.4 1007.2 +31.8
15 17.04 штиль 0 20 км 4/4 750 м
[Cu Sc]
+25.4 +23.8 91 +35 +35 очень
душно
1010.1 1005.9
18 17.04 штиль 0 50 км 4/4 750 м
[Cu Sc]
+25.0 +24.1 95 +34 +34 очень
душно
1010.8 1006.6
21 17.04 штиль 0 50 км 6/4 750 м
[Cu hum Ci sp]
+30.4 +24.3 70 +42 +47 опасность
перегрева
1012.0 1007.9
21 18.04 штиль 0 50 км 9/6 1000 м
[Cu Sc]
+29.4 +25.5 80 +43 +46 опасность
перегрева
1012.4 1008.3

 

Местоположение метеостанции Нэбаууолу (Фиджи): широта -17.00 долгота 178.70 высота над уровнем моря 36 м.

В архиве по умолчанию представлена погода в Нэбаууолу за последнюю неделю. Архивные данные за месяц целиком и за предыдущие месяцы, начиная с января 2011 года, Вы можете получить, выбрав интересующий диапазон дат из раскрывающегося списка и нажав кнопку "Ввод!".


*Определитесь, кто Вы:
робот инопланетянин человек

Внимание! Время в таблицах - всемирное. Для получения местного времени необходимо прибавить поправку, которая равна 12 ч.

Смотрите также архив погоды в соседних городах и на ближайших метеорологических станциях:

Погода на Вануа Мбалаву (Фиджи) (36 км)
Погода в Ракираки (Фиджи) (65 км)
Погода в Ламбасе (Фиджи) (100 км)
Погода в Наусори (Фиджи) (118 км)
Погода в Ясава-и-Рара (Фиджи) (124 км)
Погода в Сигатоке (Фиджи) (132 км)
Погода в Нанди (Фиджи) (157 км)
Погода на Вануа Леву (Фиджи) (167 км)
Погода на Острове Вива (Фиджи) (192 км)
Погода в Вьюнисея (Фиджи) (235 км)

Пояснения к столбцам:

Ветер - указаны скорость ветра в м/с - средняя за 10 мин, порывы в срок и между сроками (в фигурных скобках) и направление, откуда дует ветер: С - северный, СВ - северо-восточный, В - восточный, ЮВ - юго-восточный, Ю - южный, ЮЗ - юго-западный, З - западный, СЗ - северо-западный.
Видимость - горизонтальная дальность видимости в метрах или километрах. При видимости от 1 до 10 км при отсутствии осадков обычно наблюдается дымка, при ухудшении видимости до 1 км и менее - туман. В сухую погоду видимость может ухудшаться дымом, пылью или мглою.
Явления - указаны атмосферные явления, наблюдавшиеся в срок или в последний час перед сроком; фигурными скобками обозначены явления, наблюдавшиеся между сроками (за 1-3 часа до срока); квадратными скобками обозначены град или гололедные отложения с указанием их диаметра в мм.
Облачность - указаны через наклонную черту общая и нижняя облачность в баллах и высота нижней границы облаков в метрах; квадратными скобками обозначены формы облаков: Ci - перистые, Cs - перисто-слоистые, Cc - перисто-кучевые, Ac - высококучевые, As - высокослоистые, Sc - слоисто-кучевые, Ns - слоисто-дождевые, Cu - кучевые, Cb - кучево-дождевые. Подробнее классификацию облаков см. в Атласе облаков (PDF).
T - Температура воздуха - температура, измеренная на высоте 2 м над землей.
Td - Температура точки росы - температура, при понижении до которой содержащийся в воздухе водяной пар достигнет насыщения.
f - Относительная влажность воздуха - влажноcть воздуха, измеренная на высоте 2 м над землей.
Te - Эффективная температура - температура, которую ощущает одетый по сезону человек в тени. Характеристика душности погоды. При расчете учитывается влияние влажности воздуха и скорости ветра на теплоощущения человека.
Tes - Эффективная температура на солнце - температура, которую ощущает человек, с поправкой на солнечный нагрев. Характеристика знойности погоды. Зависит от высоты солнца над горизонтом, облачности и скорости ветра. Ночью, в пасмурную погоду, а также при ветре 12 м/с и более поправка равна нулю.
P - Атмосферное давление - приведенное к уровню моря атмосферное давление.
Po - Атмосферное давление - измеренное на уровне метеостанции атмосферное давление.
Tmin - Минимальная температура - минимум температуры воздуха на высоте 2 м над землей.
Tmax - Максимальная температура - максимум температуры воздуха на высоте 2 м над землей.
R - Количество осадков - Количество выпавших осадков за период времени, мм. При наведении курсора мыши на число - период времени, за который выпало указанное количество осадков.
R24 - Количество осадков - Количество выпавших осадков за 24 часа, мм.
S - Снежный покров - Высота снежного покрова, см. При наведении курсора мыши на число - состояние снежного покрова и степень покрытия местности в баллах.